Location: Moreno
(33.9175°N, 117.1578°W)
Time: 16:08:19
(UTC+00:00)

COSMO-SKYMED 1 - Pass Details

Date: 18 April 2024
Orbit: 621 x 623 km, 97.9° (Epoch: 20 May)

Event Time Altitude Azimuth Distance (km) Brightness Sun altitude
Rises 12:36:25 0° 149° (SSE) 2,891 6.2 -8.2°
Reaches altitude 10° 12:38:42 10° 141° (SE) 1,989 5.4 -7.7°
Maximum altitude 12:42:42 38° 73° (ENE) 957 4.4 -6.9°
Drops below altitude 10° 12:46:44 10° 5° (N) 2,000 5.5 -6.2°
Sets 12:49:02 0° 358° (N) 2,910 6.2 -5.7°
